Regional Weather Roundup
Issued by NWS

Home | Current Version | Previous Version | Text Only | Print | Product List | Glossary On
Versions: 1 2 3 4 5 6 7 8 9 10 11 12 13 14 15 16 17 18 19 20 21 22 23 24 25 26 27 28 29 30 31 32 33 34 35 36 37 38 39 40 41 42 43 44 45 46 47 48 49 50
000
ASUS46 KSTO 282109
RWRCA

NORTHERN AND CENTRAL CA REGIONAL WEATHER ROUNDUP
NATIONAL WEATHER SERVICE SACRAMENTO CA
100 PM PST FRI NOV 28 2014

NOTE: FAIR INDICATES FEW OR NO CLOUDS BELOW 12,000 FEET WITH NO
SIGNIFICANT WEATHER AND/OR OBSTRUCTIONS TO VISIBILITY.

CAZ001-003-282200-
NORTHWEST AREA

CITY           SKY/WX    TMP DP  RH WIND       PRES   REMARKS
CRESCENT CITY  LGT RAIN  56  55  97 S14       29.78F FOG
ARCATA         NOT AVBL
SHELTER COVE   NOT AVBL
UKIAH          LGT RAIN  49  45  86 CALM      29.94F FOG
$$

CAZ006-505>513-282200-
BAY AREA

CITY           SKY/WX    TMP DP  RH WIND       PRES   REMARKS
SANTA ROSA     CLOUDY    59  50  72 CALM      29.94F
SAN RAFAEL     N/A       58  MM  MM MISG
NAPA           SUNNY     57  52  83 VRB5      29.96F
CONCORD        MOSUNNY   67  49  52 CALM      29.93F
OAKLAND CITY   N/A       64  MM  MM MISG
OAKLAND        MOSUNNY   58  51  78 S5        29.95F
SAN FRAN CITY  N/A       62  MM  69 MISG
SAN FRAN ARPT  MOSUNNY   58  53  84 E5        29.95F
LIVERMORE      SUNNY     63  47  55 VRB3      29.94F
HAYWARD        SUNNY     57  51  80 CALM      29.94F
REDWOOD CITY   N/A       MM  MM  MM MISG
MOFFETT ARPT   SUNNY     61  45  55 CALM      29.96F
SAN JOSE ARPT  MOSUNNY   59  43  55 CALM      29.95F
$$
CAZ034-037-514>518-282200-
CENTRAL COAST

CITY           SKY/WX    TMP DP  RH WIND       PRES   REMARKS
WATSONVILLE    SUNNY     66  39  37 S5        29.96F
SALINAS        SUNNY     67  36  31 CALM      29.95F
MONTEREY       SUNNY     59  47  64 NW7       29.97F
PT PIEDRAS BLS NOT AVBL
SAN LUIS OBISP SUNNY     71  43  36 NW10      29.95F
SANTA MARIA    SUNNY     70  48  45 NW8       29.96F
$$
CAZ015-016-282200-
NORTHERN SACRAMENTO VALLEY

CITY           SKY/WX    TMP DP  RH WIND       PRES   REMARKS
REDDING        CLOUDY    50  49  96 CALM      29.95F FOG
RED BLUFF      LGT RAIN  51  48  89 S6        29.94F FOG
OROVILLE       PTSUNNY   63  45  51 S12       29.95F
$$
CAZ016>018-282200-
SOUTHERN SACRAMENTO VALLEY

CITY           SKY/WX    TMP DP  RH WIND       PRES   REMARKS
AUBURN         CLOUDY    55  43  62 CALM      29.96F
BEALE AFB      MOSUNNY   64  49  57 SE12      29.93F HAZE
LINCOLN        FAIR      63  45  51 SE6       29.94F
MARYSVILLE     MOSUNNY   63  47  55 SE12      29.94F
SAC INTL ARPT  MOSUNNY   59  48  67 SE6       29.94F
MATHER AIRPORT PTSUNNY   61  48  63 S3        29.95F
DOWNTOWN SAC   N/A       63  MM  MM MISG
SAC EXEC ARPT  PTSUNNY   61  51  70 S3        29.95F
VACAVILLE      SUNNY     68  49  50 SW6       29.94F
TRAVIS AFB     SUNNY     68  52  56 SW8       29.93F
$$
CAZ019>021-282200-
SAN JOAQUIN VALLEY

CITY           SKY/WX    TMP DP  RH WIND       PRES   REMARKS
STOCKTON       SUNNY     57  46  66 CALM      29.94F HAZE
MODESTO        SUNNY     63  47  55 VRB5      29.94F HAZE
MERCED         SUNNY     69  48  47 CALM      29.94F HAZE
LEMOORE        SUNNY     69  45  41 SE3       29.95F HAZE
FRESNO         SUNNY     69  46  43 CALM      29.95F HAZE
HANFORD        SUNNY     70  46  42 CALM      29.95F HAZE
PORTERVILLE    SUNNY     73  45  35 N5        29.95F
BAKERSFIELD    SUNNY     74  38  27 W6        29.92F
$$
CAZ011-012-071-282200-
NORTHERN MOUNTAINS

CITY           SKY/WX    TMP DP  RH WIND       PRES   REMARKS
YREKA          CLOUDY    51  38  60 S18       29.82F
MOUNT SHASTA   CLOUDY    42  38  85 CALM      29.90F FOG
ALTURAS        LGT RAIN  42  35  76 W16G23    29.91S
$$
CAZ011-012-071-282200-
SIERRA NEVADA MTNS

CITY           SKY/WX    TMP DP  RH WIND       PRES   REMARKS
BLUE CANYON    CLOUDY    52   2  13 S14G21    30.04F
TRUCKEE        PTSUNNY   52  -2  11 SW16G24   30.02F
TAHOE VLY ARPT MOSUNNY   56  -4   8 S18G32    30.02F
MAMMOTH LAKES  FAIR      61   0   8 SW15G25   30.08F
$$




USA.gov is the U.S. government's official web portal to all federal, state and local government web resources and services.